Clayton, NM

10:34 PM MDT on October 19, 2019 (GMT -0600)
Clayton Municipal

Weather History for KCAO - September, 2019

Change the Weather History Date:

Sunday, September 22, 2019

  Actual Average Record
Temperature  
Mean Temperature 63 °F 63 °F  
Max Temperature 75 °F 77 °F 94 °F (1898)
Min Temperature 50 °F 50 °F 34 °F (1970)
Degree Days  
Heating Degree Days 2 4  
Month to date heating degree days 2 39  
Since 1 July heating degree days 5 45  
Cooling Degree Days 0 2  
Month to date cooling degree days 191 91  
Year to date cooling degree days 1082 888  
Growing Degree Days 12 (Base 50)    
Moisture  
Dew Point 44 °F    
Average Humidity 61    
Maximum Humidity 90    
Minimum Humidity 31    
Precipitation  
Precipitation T in 0.05 in 3.74 in (1941)
Month to date precipitation 0.36 1.29  
Year to date precipitation 12.44 13.49  
Sea Level Pressure  
Sea Level Pressure 29.96 in    
Wind  
Wind Speed 12 mph (WSW)    
Max Wind Speed 29 mph    
Max Gust Speed 38 mph    
Visibility 10 miles    
Events      
T = Trace of Precipitation, MM = Missing Value Source: NWS Daily Summary

Daily Weather History Graph

Daily Weather History Graph

Search for Another Location

Airport or City:

Astronomy

Sep. 22, 2019 Rise Set
Actual Time 6:40 AM MDT 6:49 PM MDT
Civil Twilight 6:14 AM MDT 7:15 PM MDT
Nautical Twilight 5:44 AM MDT 7:45 PM MDT
Astronomical Twilight 5:14 AM MDT 8:15 PM MDT
Moon No Moon Rise 2:37 PM MDT (9/22)
Length of Visible Light 13h 00m
Length of Day
12h 09m
Last Quarter, 43% of the Moon is Illuminated
Sep 22
Last Quarter
Sep 28
New
Oct 5
First Quarter
Oct 13
Full
Oct 21
Last Quarter

Hourly Weather History & Observations

Time (MDT) Temp. Dew Point Humidity Pressure Visibility Wind Dir Wind Speed Gust Speed Precip Events Conditions
12:55 AM 61.0 °F 55.9 °F 83% 29.80 in 10.0 mi SW 13.8 mph - N/A   Clear
1:55 AM 61.0 °F 57.0 °F 87% 29.80 in 10.0 mi SW 11.5 mph - N/A   Clear
2:55 AM 63.0 °F 57.0 °F 81% 29.79 in 10.0 mi WNW 25.3 mph 32.2 mph 0.00 in   Overcast
3:55 AM 57.0 °F 41.0 °F 55% 29.84 in 10.0 mi North 21.9 mph 34.5 mph 0.00 in   Overcast
4:55 AM 54.0 °F 41.0 °F 62% 29.89 in 10.0 mi NNW 15.0 mph 25.3 mph 0.00 in   Scattered Clouds
5:55 AM 52.0 °F 39.9 °F 63% 29.91 in 10.0 mi NNW 21.9 mph 31.1 mph N/A   Clear
6:55 AM 51.1 °F 39.9 °F 66% 29.98 in 10.0 mi NNW 17.3 mph 24.2 mph N/A   Clear
7:55 AM 54.0 °F 42.1 °F 64% 30.01 in 10.0 mi NNW 18.4 mph 25.3 mph N/A   Clear
8:55 AM 57.9 °F 43.0 °F 58% 30.01 in 10.0 mi North 21.9 mph 25.3 mph N/A   Clear
9:55 AM 60.1 °F 44.1 °F 55% 30.03 in 10.0 mi North 12.7 mph 23.0 mph N/A   Clear
10:55 AM 64.0 °F 45.0 °F 50% 30.02 in 10.0 mi North 12.7 mph 18.4 mph N/A   Clear
11:55 AM 68.0 °F 44.1 °F 42% 30.00 in 10.0 mi Variable 6.9 mph - N/A   Clear
12:55 PM 68.0 °F 43.0 °F 40% 29.99 in 10.0 mi Variable 3.5 mph - N/A   Clear
1:55 PM 73.0 °F 43.0 °F 34% 29.96 in 10.0 mi SW 8.1 mph - N/A   Clear
2:55 PM 73.9 °F 42.1 °F 32% 29.93 in 10.0 mi South 8.1 mph - N/A   Clear
3:55 PM 73.9 °F 42.1 °F 32% 29.94 in 10.0 mi Variable 4.6 mph 16.1 mph N/A   Clear
4:55 PM 75.0 °F 42.1 °F 31% 29.95 in 10.0 mi South 11.5 mph - N/A   Clear
5:55 PM 72.0 °F 42.1 °F 34% 29.97 in 10.0 mi SSE 13.8 mph - N/A   Clear
6:55 PM 64.9 °F 43.0 °F 45% 30.00 in 10.0 mi SSE 9.2 mph - N/A   Clear
7:55 PM 59.0 °F 44.1 °F 58% 30.02 in 10.0 mi SSE 8.1 mph - N/A   Clear
8:55 PM 55.9 °F 44.1 °F 64% 30.04 in 10.0 mi South 5.8 mph - N/A   Clear
9:55 PM 57.0 °F 44.1 °F 62% 30.04 in 10.0 mi South 4.6 mph - N/A   Clear
10:55 PM 55.0 °F 46.0 °F 72% 30.05 in 10.0 mi SSW 8.1 mph - N/A   Clear
11:55 PM 57.0 °F 48.0 °F 72% 30.04 in 10.0 mi SSW 10.4 mph - N/A   Clear